Content
SEND FEEDBACK

Daily
Averages
Monthly
Summary
United States of America

SULPHUR, LOUISIANA


Home > North America > United States > Louisiana
Elevation: 10 feet     Latitude: 30 13N     Longitude: 093 23W

WEATHER
 
SELECT A DAY
Number of Records: 187,190;   Date Range: 11/22/06 - 7/7/14
 
SHARE

PRINT THIS DATA

[ ← Previous Day ]
WEATHER ALMANAC - FEBRUARY 28, 2013
[ Next Day → ]
[ °C ]   °F
Weather ElementAverageHighLow
Temperature45.8 °F55.4 °F (4:35 pm)37.4 °F (5:35 am)
Dewpoint32.8 °F37.4 °F (7:35 pm)30.2 °F (12:15 pm)
Humidity62.2 %81 % (1:55 am)38 % (4:35 pm)
Barometer30.18 in30.25 in (8:15 am)30.13 in (3:55 pm)
Wind Speed7.1 mph15 mph (4:35 pm)
Wind Gust20.7 mph (4:35 pm)
Weather ElementAverage
Visibility10 mi
Wind DirectionW (271.6 °)

Weather ElementTotal
Precipitation---
Heating Degree Days18.6 (Base 65)
Averaged from 68 records on February 28, 2013
WEATHER CONDITIONS BREAKOUT
WIND DIRECTION BREAKOUT
WEATHER BY HOUR - FEBRUARY 28, 2013
[ °C ]   °F
Local TimeTemperatureDewpointHumidityBarometerVisibilityWind DirectionWind SpeedGust SpeedPrecipitationEventsConditions
12:55 AM44.6 °F33.8 °F66 %30.14 in10.0 miCalmClear
1:15 AM42.8 °F33.8 °F70 %30.14 in10.0 miCalmClear
1:35 AM42.8 °F33.8 °F70 %30.15 in10.0 miWest (260°)3.5 mphClear
1:55 AM41.0 °F35.6 °F81 %30.15 in10.0 miWest (280°)3.5 mphClear
2:15 AM41.0 °F35.6 °F81 %30.15 in10.0 miCalmClear
2:35 AM39.2 °F33.8 °F81 %30.15 in10.0 miNW (320°)5.8 mphClear
2:55 AM39.2 °F33.8 °F81 %30.14 in10.0 miNW (320°)5.8 mphClear
3:15 AM41.0 °F33.8 °F76 %30.14 in10.0 miNW (320°)8.1 mphClear
3:35 AM42.8 °F32.0 °F66 %30.14 in10.0 miNW (320°)10.4 mphClear
3:55 AM41.0 °F32.0 °F70 %30.14 in10.0 miNW (320°)10.4 mphClear
4:15 AM41.0 °F32.0 °F70 %30.15 in10.0 miNNW (330°)9.2 mphClear
4:35 AM41.0 °F32.0 °F70 %30.15 in10.0 miNW (320°)6.9 mphClear
4:55 AM41.0 °F32.0 °F70 %30.16 in10.0 miNW (320°)6.9 mphClear
5:15 AM39.2 °F32.0 °F75 %30.17 in10.0 miNW (320°)5.8 mphClear
5:35 AM37.4 °F32.0 °F81 %30.17 in10.0 miNW (320°)4.6 mphClear
5:55 AM37.4 °F32.0 °F81 %30.18 in10.0 miNW (320°)5.8 mphClear
6:15 AM37.4 °F32.0 °F81 %30.19 in10.0 miNW (320°)5.8 mphClear
6:35 AM39.2 °F32.0 °F75 %30.19 in10.0 miNNW (330°)8.1 mphClear
6:55 AM39.2 °F32.0 °F75 %30.20 in10.0 miNW (320°)6.9 mphClear
7:15 AM41.0 °F32.0 °F70 %30.22 in10.0 miNNW (330°)6.9 mphClear
7:35 AM41.0 °F32.0 °F70 %30.23 in10.0 miNNW (330°)10.4 mphClear
7:55 AM42.8 °F32.0 °F66 %30.24 in10.0 miNNW (330°)8.1 mphClear
8:15 AM42.8 °F32.0 °F66 %30.25 in10.0 miNNW (330°)6.9 mphClear
8:35 AM42.8 °F32.0 °F66 %30.25 in10.0 miNNW (330°)8.1 mphClear
8:55 AM44.6 °F32.0 °F61 %30.25 in10.0 miNW (320°)9.2 mphClear
9:15 AM44.6 °F32.0 °F61 %30.25 in10.0 miNNW (330°)6.9 mphClear
9:35 AM44.6 °F32.0 °F61 %30.24 in10.0 miNNW (330°)8.1 mphClear
9:55 AM46.4 °F32.0 °F57 %30.24 in10.0 miNNW (330°)11.5 mphClear
10:15 AM46.4 °F32.0 °F57 %30.24 in10.0 miNNW (340°)11.5 mphClear
10:35 AM48.2 °F32.0 °F54 %30.24 in10.0 miNW (320°)11.5 mphClear
10:55 AM48.2 °F32.0 °F54 %30.24 in10.0 miNW (320°)11.5 mphClear
11:15 AM50.0 °F32.0 °F50 %30.24 in10.0 miNNW (330°)13.8 mph19.6 mphClear
11:35 AM50.0 °F32.0 °F50 %30.23 in10.0 miNNW (340°)9.2 mph16.1 mphClear
11:55 AM51.8 °F32.0 °F47 %30.22 in10.0 miNorth (350°)13.8 mphClear
12:15 PM51.8 °F30.2 °F44 %30.21 in10.0 miNNW (330°)12.7 mphClear
12:55 PM51.8 °F30.2 °F44 %30.19 in10.0 miNW (310°)13.8 mph17.3 mphClear
1:15 PM51.8 °F30.2 °F44 %30.18 in10.0 miNorth (350°)11.5 mphClear
1:35 PM51.8 °F32.0 °F47 %30.17 in10.0 miNNW (330°)10.4 mph16.1 mphClear
1:55 PM51.8 °F30.2 °F44 %30.17 in10.0 miNNW (340°)13.8 mph18.4 mphClear
2:15 PM51.8 °F30.2 °F44 %30.16 in10.0 miNW (310°)10.4 mphClear
2:35 PM51.8 °F30.2 °F44 %30.15 in10.0 miNNW (330°)8.1 mph18.4 mphClear
2:55 PM51.8 °F30.2 °F44 %30.14 in10.0 miNNW (330°)9.2 mph17.3 mphClear
3:15 PM51.8 °F30.2 °F44 %30.14 in10.0 miNNW (340°)12.7 mph17.3 mphClear
3:35 PM53.6 °F30.2 °F41 %30.14 in10.0 miNW (310°)11.5 mphClear
3:55 PM53.6 °F30.2 °F41 %30.13 in10.0 miNNW (330°)9.2 mphClear
4:15 PM53.6 °F30.2 °F41 %30.13 in10.0 miNW (320°)8.1 mphClear
4:35 PM55.4 °F30.2 °F38 %30.13 in10.0 miNW (320°)15.0 mph20.7 mphClear
4:55 PM53.6 °F30.2 °F41 %30.13 in10.0 miNW (320°)11.5 mphClear
5:15 PM51.8 °F32.0 °F47 %30.13 in10.0 miNW (310°)8.1 mphClear
5:35 PM53.6 °F32.0 °F44 %30.14 in10.0 miWNW (300°)6.9 mphClear
6:15 PM50.0 °F32.0 °F50 %30.14 in10.0 miWest (270°)3.5 mphClear
6:35 PM48.2 °F33.8 °F58 %30.15 in10.0 miCalmClear
6:55 PM46.4 °F35.6 °F66 %30.15 in10.0 miSW (220°)3.5 mphClear
7:15 PM46.4 °F35.6 °F66 %30.16 in10.0 miSW (230°)3.5 mphClear
7:35 PM46.4 °F37.4 °F71 %30.17 in10.0 miCalmClear
7:55 PM46.4 °F37.4 °F71 %30.17 in10.0 miCalmClear
8:15 PM46.4 °F37.4 °F71 %30.17 in10.0 miCalmClear
8:35 PM46.4 °F37.4 °F71 %30.18 in10.0 miCalmClear
8:55 PM46.4 °F37.4 °F71 %30.18 in10.0 miCalmClear
9:15 PM46.4 °F35.6 °F66 %30.19 in10.0 miWest (270°)3.5 mphClear
9:35 PM46.4 °F35.6 °F66 %30.19 in10.0 miWest (280°)4.6 mphClear
9:55 PM44.6 °F35.6 °F71 %30.19 in10.0 miWNW (290°)5.8 mphClear
10:15 PM44.6 °F33.8 °F66 %30.19 in10.0 miWNW (290°)5.8 mphClear
10:35 PM42.8 °F35.6 °F76 %30.19 in10.0 miWNW (290°)4.6 mphClear
10:55 PM42.8 °F35.6 °F76 %30.19 in10.0 miWNW (290°)4.6 mphClear
11:15 PM42.8 °F33.8 °F70 %30.19 in10.0 miWNW (290°)5.8 mphClear
11:35 PM42.8 °F33.8 °F70 %30.19 in10.0 miWNW (290°)4.6 mphClear
11:55 PM42.8 °F33.8 °F70 %30.19 in10.0 miWest (280°)3.5 mphClear
Hourly data recorded from KUXL, located miles away from Sulphur, Louisiana







STORIES FROM OUR PARTNERS